World > North America > United States > Texas > Strawn  

Strawn, TX Hourly Weather Updates

Feedback E-mail the Weather

Quick WX

Strawn, TX Weather Maps

°F °C°F °C
Strawn Weather Map
UTC Time: 2/26/2024, 08:02
Your Time:

Strawn, TX Regional Weather

Expires:202402260900;;715045
ASUS44 KFWD 260801
RWRTX 
NORTH TEXAS HOURLY WEATHER ROUNDUP
NATIONAL WEATHER SERVICE FORT WORTH TX
200 AM CST MON FEB 26 2024

NOTE: "FAIR" INDICATES FEW OR NO CLOUDS BELOW 12,000 FEET WITH NO
SIGNIFICANT WEATHER AND/OR OBSTRUCTIONS TO VISIBILITY.


TXZ083>090-098>101-113>116-127>130-139>142-154-155-260900-
WESTERN NORTH TEXAS
  
CITY           SKY/WX    TMP DP  RH WIND       PRES   REMARKS
WICHITA FALLS  FAIR      55  37  50 SW13      29.82F                  
WF-KICKAPOO    FAIR      56  35  45 SW12      29.85F                  
VERNON         FAIR      53  37  54 W12       29.86S                  
ABILENE        FAIR      64  27  24 SW12      29.95S                  
ABILENE-DYESS  FAIR      67  21  17 SW12      29.91S                  
GRAHAM         FAIR      60  33  35 S5        29.87F                  
BRECKENRIDGE   FAIR      61  32  33 MISG      29.91S                  
CISCO          FAIR      70  23  17 W10       29.91S                  
MINERAL WELLS  FAIR      59  35  40 SW5       29.87S                  
STEPHENVILLE   FAIR      61  33  36 S3        29.95R                  
COMANCHE       FAIR      70  30  23 SW12      29.93S                  
$$


SKY/WX - Weather  TMP - Temperature  DP - Dew Point  RH - Humidity
WIND - Wind Direction/Speed PRES - Barometric Pressure VSB - Visibility
WCI - Wind Chill Index E13G22 Wind - East Wind 13 mph/Gusts of 22 mph

Trending Headlines

Trending Entertainment Headlines

Strawn Radar Loop

Use the map search tool if you want to place a location marker on the radar map...

Strawn Quick Facts

National Two Day Weather Forecast


E-mail the Strawn Weather Forecast

Voice your opinion or tell us about page issues...